Other Public Products
Issued by NWS Grand Forks, ND

Home | Current Version | Previous Version | Graphics & Text | Print | Product List | Glossary On
Versions: 1 2 3 4 5 6 7 8 9 10 11 12 13 14 15 16 17 18 19 20 21 22 23 24 25 26 27 28 29 30 31 32 33 34 35 36 37 38 39 40 41 42 43 44 45 46 47 48 49 50
000
FPUS83 KFGF 300731
OPUFGF
PRAIRIE TO PINES WEATHER ROUNDUP
NATIONAL WEATHER SERVICE EASTERN NORTH DAKOTA/GRAND FORKS ND
200 AM CDT SAT APR 30 2016

 **SATELLITE DATA USED TO AUGMENT SKY COVER AT AUTOMATED STATIONS**
 *****  WEATHER ACROSS EASTERN NORTH DAKOTA  *****

CITY           SKY/WX    TMP DP  RH WIND       PRES   REMARKS
GRAND FORKS    CLEAR     44  32  62 E9        30.19R
GRAND FORKS AF CLEAR     43  31  61 E10       30.19R
GRAND CITY NWS NOT AVBL
BUXTON           N/A     43  35  72 NE6         N/A
DEVILS LAKE    CLEAR     40  31  70 NE9       30.20R
FARGO          CLEAR     48  32  53 E12       30.14R
WAHPETON ARPT  SUNNY     46  32  57 E8        30.13S
$$

 *****  WEATHER ACROSS CENTRAL AND WESTERN NORTH DAKOTA  *****

CITY           SKY/WX    TMP DP  RH WIND       PRES   REMARKS
JAMESTOWN      CLEAR     44  32  62 NE14      30.12S
BISMARCK       CLEAR     42  33  70 E12       30.14R
MINOT          CLEAR     40  28  62 NW5       30.19R
MINOT AFB      CLEAR     42  29  59 E10       30.18S
GARRISON         N/A     44  29  55 E10       30.16R
WILLISTON      CLEAR     38  28  67 N5        30.16R
DICKINSON      CLEAR     36  29  75 E7        30.09S
HETTINGER      MOCLDY    34  32  92 CALM      30.10S
$$

 *****  OTHER OBSERVATIONS NORTHEAST NORTH DAKOTA  *****

CITY           SKY/WX    TMP DP  RH WIND       PRES   REMARKS
WALHALLA       FAIR      36  28  75 NW6       30.25R
LANGDON        FAIR      37  28  70 NE8       30.23S
CAVALIER       FAIR      37  32  81 NW5       30.24R
GRAFTON        FAIR      39  32  75 NE8       30.23R
CANDO          FAIR      39  27  60 NE10      30.23S
FORT TOTTEN      N/A     44  30  58 E6        29.95S
ROLLA          FAIR      37  25  60 NE9       30.24S
RUGBY          FAIR      39  28  65 E13       30.20S
 ***** THE ABOVE OBSERVATIONS ARE NON NWS ARE NOT QUALITY
        CONTROLLED AND MAY MIS-REPORT RAIN FOR SNOW...
$$

 *****  OTHER OBSERVATIONS SOUTHEAST NORTH DAKOTA *****

CITY           SKY/WX    TMP DP  RH WIND       PRES   REMARKS
COOPERSTOWN    NOT AVBL
VALLEY CITY    FAIR      45  32  61 NE10      30.15S
OAKES            N/A    N/A N/A N/A MISG        N/A
GWINNER        FAIR      43  37  81 CALM      30.11F
SHEYENNE NWR     N/A     37  32  83 E5        29.95S
BUFFALO          N/A     40  30  67 NE12        N/A
WYNDMERE         N/A     39  36  87 VRB3        N/A
 ***** THE ABOVE OBSERVATIONS ARE NON NWS ARE NOT QUALITY
       CONTROLLED AND MAY MIS-REPORT RAIN FOR SNOW...
$$

  *****  WEATHER ACROSS NORTHERN MINNESOTA  *****

CITY           SKY/WX    TMP DP  RH WIND       PRES   REMARKS
FLAG ISLAND    PTCLDY    45  30  57 E6        30.25S
WARROAD        PTCLDY    37  34  87 E5        30.26R
ROSEAU         PTCLDY    37  30  75 E5        30.25R
HALLOCK        CLEAR     43  30  61 E8        30.22S
THF RVR FALLS  CLEAR     43  28  56 NE10      30.22R
HALSTAD        NOT AVBL
FOSSTON        CLEAR     41  30  65 E7        30.20R
BAUDETTE       CLEAR     37  29  72 E6        30.25R
WASKISH        CLEAR     39  32  75 E6        30.24R
CROOKSTON      CLEAR     43  32  65 E9        30.20R
$$
  *****  WEATHER ACROSS CENTRAL AND WEST MINNESOTA  *****

CITY           SKY/WX    TMP DP  RH WIND       PRES   REMARKS
BEMIDJI        CLEAR     37  32  80 E8        30.21R
PARK RAPIDS    CLEAR     45  29  53 E8        30.18R
WADENA         CLEAR     39  30  70 E7        30.17R
DETROIT LAKES  CLEAR     46  32  57 SE10      30.18R
MOORHEAD       CLEAR     46  34  61 E9        30.16R
FERGUS FALLS   CLEAR     46  34  61 E7        30.13S
ELBOW LAKE     FAIR      46  33  61 SE13      30.14R
MORRIS MN      CLEAR     45  36  70 E12       30.12R
STAPLES        PTCLDY    41  30  65 CALM      30.18S
WHEATON        CLEAR     45  37  76 E8        30.14R
$$
  *****  WEATHER ELSEWHERE ACROSS MINNESOTA  *****

CITY           SKY/WX    TMP DP  RH WIND       PRES   REMARKS
DULUTH         CLEAR     36  28  73 E7        30.21R
INTRNTL FALLS  CLEAR     33  29  85 CALM      30.26R
ELY            CLEAR     37  30  75 NE3       30.24S
CLOQUET        CLEAR     36  28  75 NE7       30.20S
BRAINERD       CLEAR     41  29  62 E6        30.19R
HIBBING        CLEAR     37  30  75 NE5       30.22R
ALEXANDRIA     CLEAR     45  32  60 E12       30.15R
SAINT CLOUD    CLEAR     44  31  60 E6        30.16R
MINNEAPOLIS    CLOUDY    49  36  61 NE7       30.12F
$$

  *****  WEATHER ACROSS SOUTH DAKOTA  *****

CITY           SKY/WX    TMP DP  RH WIND       PRES   REMARKS
SIOUX FALLS    CLOUDY    42  39  89 NE10      30.02F
BROOKINGS      PTCLDY    38  35  89 NE3       30.06F
WATERTOWN      CLOUDY    36  33  89 N5        30.08S
HURON          MOCLDY    42  39  89 NE9       30.04F
SISSETON         N/A     37  35  92 N5        30.10S
ABERDEEN       PTCLDY    40  37  89 N5        30.09F
MITCHELL       CLOUDY    45  41  86 E10       30.02F
PIERRE         CLOUDY    42  38  85 NE9       30.02F
MOBRIDGE       MOCLDY    39  36  89 N8        30.06S
RAPID CITY     CLOUDY    40  37  89 N6        30.04S
$$

  *****  SOME WEATHER IN NEARBY STATES *****

CITY           SKY/WX    TMP DP  RH WIND       PRES   REMARKS
GLASGOW MT     CLOUDY    46  35  65 E8        30.12S
GREAT FALLS MT MOCLDY    40  34  79 E7        30.02R
CHEYENNE WY    LGT SNOW  30  28  92 N7        29.88S FOG     WCI  23
SCOTTSBLUFF NE LGT SNOW  33  31  92 N5        29.93S FOG
OMAHA NE       LGT RAIN  46  43  89 NE13G20   29.86F FOG
DES MOINES IA  CLOUDY    47  41  80 E15G26    29.92F
DAVENPORT IA   MOCLDY    46  40  79 E12       30.03F
CHICAGO IL     CLOUDY    44  38  79 NE8       30.07F
EAU CLAIRE WI  CLOUDY    43  33  68 NE6       30.13R
LA CROSSE WI   CLOUDY    40  38  93 CALM      30.12R
$$

  *****  SOME NATIONAL WEATHER *****

CITY           SKY/WX    TMP DP  RH WIND       PRES   REMARKS
LA GUARDIA NY  CLOUDY    48  38  68 NE10      30.15F
RALEIGH NC     CLOUDY    60  57  89 E7        30.06S
ATLANTA GA     CLOUDY    70  55  59 E14       29.90F
NEW ORLEANS LA CLOUDY    76  71  85 SE9       29.80F
OKLAHOMA CITY  CLOUDY    53  52  96 NW18      29.68F FOG
ALBUQUERQUE NM CLOUDY    47  36  65 S9        29.89F
SALT LAKE CITY MOCLDY    48  41  76 SW5       29.86R
LOS ANGELES CA PTCLDY    56  51  84 SW8       29.89F
BOISE ID       CLEAR     46  37  71 NW13      29.95R
SEATTLE WA     PTCLDY    52  44  74 NE7       30.24R
$$

*** WEATHER ACROSS MANITOBA...SASKATCHEWAN AND ONTARIO ***
                ***ONTARIO***

CITY           SKY/WX    TMP DP  RH WIND       PRES   REMARKS
GERALDTON      CLOUDY    34  32  93 E6        30.29S
THUNDER BAY    CLOUDY    41  30  65 N5        30.28S
SIOUX LOOKOUT  CLEAR     36  27  69 NE3       30.29S
TORONTO        CLEAR     39  27  60 NW9       30.17S
BIG TROUT LK   CLOUDY    30  28  93 E2        30.38R
PICKLE LAKE    NOT AVBL
DRYDEN         CLEAR     37  30  75 NE6       30.29R
KENORA         CLEAR     39  28  65 E7        30.27S
$$
                *** MANITOBA***

CITY           SKY/WX    TMP DP  RH WIND       PRES   REMARKS
BRANDON        CLEAR     34  25  69 NE6       30.27R
DAUPHIN        CLEAR     34  25  69 NE8       30.30S
ISLAND LAKE    PTCLDY    36  23  60 SE5       30.37
PILOT MOUND      N/A     37  23  56 NE7         N/A
THE PAS        NOT AVBL
THOMPSON       MOCLDY    46  25  42 S5        30.30R
WINNIPEG       CLEAR     37  28  70 NE8       30.27R
LYNN LAKE      CLOUDY    41  27  56 SW6       30.26R
CHURCHILL      CLEAR     21  19  93 SE7       30.47S WCI  13
$$
                ***SASKATCHEWAN***

CITY           SKY/WX    TMP DP  RH WIND       PRES   REMARKS
ESTEVAN        CLEAR     39  25  56 E10       30.21R
KINDERSLEY     CLEAR     39  25  56 SE8       30.13R
LLOYDMINSTER   CLOUDY    46  23  39 S8        30.13R
PRINCE ALBERT  CLEAR     36  25  64 E5        30.23R
REGINA         CLEAR     45  19  36 SE16      30.23R
YORKTON        CLEAR     39  27  60 SE8       30.27S
N. BATTLEFORD  CLEAR     45  21  39 E13       30.18R   C1F1C2F2C3F3C4F4C5F5C6F6C7F7C8F8C9F9CaFaCbFbCcFcCdFdCe!



USA.gov is the U.S. government's official web portal to all federal, state and local government web resources and services.